Voltar ao catálogo

DELTA 1 DEB

AtivoSSO
NORAD 12178·DEBRIS·🇺🇸 United States

Lançado Mar 5, 1978 de Vandenberg Space Force Base

Loading…

Próximas Passagens (próximas 24 horas)

TLE

AtualizadoSource: Space-Track

Época: Sep 14, 2026, 09:35 UTC

1 12178U 78026T   26257.39946208  .00000260  00000-0  22520-3 0  9997
2 12178  99.3616 132.7719 0060559 281.7044 254.2359 13.94815381317527

Acompanhe DELTA 1 DEB em tempo real com AllMySat

Download on the App Store